[[{"header":{"parameterUnit":"m.s-1","parameterCategory":1,"la1":30.2991,"la2":30.254,"lo1":-89.0895,"lo2":-89.0444,"dy":0.0017,"dx":0.0017,"nx":28,"ny":28,"refTime":"2024-05-14T09:00:00:Z","depth":0,"parameterNumber":2,"parameterNumberName":"U-component_of_WINDS"},"data":[0,0,0,0,0,0,0,0,0,0,0,0,0,0,0,0,0,0,0,0,0,0,0,0,0,0,0,0,0,0,0,0,0,0,0,0,0,0,0,0,0,0,0,0,0,0,0,0,0,0,0,0,0,0,0,0,0,0,2.6912,2.6912,0,2.6971,2.6972,2.6973,2.6968,2.6967,2.6966,2.6966,2.7032,2.7034,2.7037,0,0,0,0,0,0,0,0,0,0,0,0,0,2.6801,2.6803,2.6912,2.6912,2.6913,2.6971,2.6972,2.6973,2.6968,2.6967,2.6966,2.6965,2.7031,2.7034,2.7037,0,0,0,0,0,0,0,0,0,0,0,0,0,2.6854,2.6804,2.6912,2.6918,2.6919,2.6971,2.6972,2.6973,2.6969,2.6967,2.6966,2.6965,2.703,2.7034,2.7037,2.7089,0,0,2.7049,2.7051,0,0,0,0,0,0,0,0,2.6851,2.6858,2.6916,2.6917,2.6919,2.6961,2.6957,2.7012,2.6969,2.695,2.6966,2.6964,2.701,2.7015,2.7029,2.7092,2.7095,2.705,2.7052,2.7054,2.7055,0,0,0,0,0,0,0,2.6847,2.6855,2.6935,2.6917,2.6919,2.692,2.6926,2.6968,2.6987,2.6951,2.6951,2.6958,2.701,2.7026,2.7031,2.7096,2.705,2.7053,2.7056,2.7057,2.7208,2.721,0,0,0,0,0,0,2.6841,2.6852,2.6934,2.6937,2.6881,2.6923,2.693,2.6949,2.6986,2.6991,2.6959,2.6958,2.702,2.7026,2.7033,2.7099,2.7054,2.7057,2.706,2.7207,2.7209,2.7211,0,0,0,0,0,0,2.6839,2.6848,2.6931,2.6895,2.6905,2.6926,2.6948,2.6951,2.6966,2.6992,2.6996,2.6971,2.7019,2.7028,2.7076,2.7101,2.7059,2.7063,2.7205,2.7207,2.721,2.7229,0,0,0,0,0,0,2.6836,2.6848,2.6865,2.6895,2.6907,2.697,2.6949,2.6953,2.6972,2.6971,2.7004,2.7009,2.7018,2.707,2.708,2.7106,2.7066,2.7203,2.7206,2.7209,2.7226,2.7232,2.7237,0,0,0,0,0,2.6832,2.6869,2.6866,2.6876,2.693,2.6972,2.6979,2.6988,2.6974,2.6994,2.7011,2.7008,2.7096,2.7075,2.7086,2.7113,2.7201,2.7205,2.7209,2.7224,2.7231,2.7236,0,0,0,0,0,0,2.6842,2.6872,2.687,2.6917,2.6942,2.6971,2.6996,2.6994,2.7025,2.7022,2.7034,2.7042,2.7091,2.7107,2.7082,2.7168,2.7147,2.7154,2.7155,2.7162,2.7167,2.7163,2.7069,0,0,0,0,0,2.685,2.6879,2.6905,2.6944,2.6957,2.6974,2.6993,2.6998,2.7025,2.7035,2.7056,2.7084,2.7118,2.7141,2.7173,2.7228,2.7238,2.7253,2.7258,2.7262,2.7268,2.7303,2.7311,2.7223,2.7223,2.7223,0,0,2.6866,2.6886,2.6905,2.6947,2.6967,2.7,2.6983,2.7018,2.7044,2.7041,2.7088,2.7105,2.7137,2.7189,2.7213,2.7204,2.7295,2.7267,2.727,2.7274,2.7307,2.7316,2.7323,2.7226,2.7225,2.7225,0,0,2.6914,2.693,2.6967,2.6987,2.7017,2.7029,2.7038,2.7067,2.7078,2.7125,2.7125,2.7157,2.7215,2.7239,2.7259,2.7319,2.7318,2.7329,2.7357,2.739,2.7397,2.7404,2.7429,2.7437,2.7334,2.7335,2.7335,0,2.6931,2.6979,2.6986,2.7022,2.7043,2.7041,2.708,2.71,2.7139,2.7155,2.7143,2.7219,2.724,2.73,2.7315,2.733,2.7343,2.7326,2.7395,2.7402,2.7408,2.7432,2.7441,2.7336,2.7336,2.7336,2.7335,0,2.7,2.7034,2.706,2.7098,2.7121,2.7159,2.7174,2.7197,2.7201,2.7215,2.7266,2.7291,2.7331,2.7345,2.7349,2.7407,2.7401,2.7392,2.7373,2.7417,2.744,2.7449,2.7338,2.7337,2.7337,2.7337,0,0,2.7055,2.7098,2.7108,2.7127,2.7161,2.7188,2.7227,2.7265,2.7287,2.7315,2.735,2.7401,2.7394,2.7417,2.7424,2.7452,2.7503,2.7441,2.7442,2.7454,2.7573,2.7581,2.7592,2.7502,2.7504,2.7505,2.7572,0,2.7108,2.7175,2.7184,2.7245,2.7279,2.7279,2.7314,2.734,2.7355,2.7388,2.7405,2.7442,2.7428,2.7442,2.7471,2.7491,2.7528,2.7486,2.7539,2.754,2.7533,2.7603,2.7611,2.7672,2.758,2.7582,2.7583,0,2.7179,2.7209,2.7273,2.7305,2.732,2.735,2.7388,2.7418,2.745,2.7459,2.7485,2.7489,2.7534,2.7511,2.7574,2.7545,2.7568,2.7582,2.7584,2.7591,2.7566,2.7615,2.7691,2.7702,2.7596,2.7595,2.7594,0,2.7217,2.7273,2.7319,2.7335,2.7373,2.7396,2.7413,2.7443,2.7467,2.75,2.7516,2.7555,2.7577,2.7608,2.7624,2.7605,2.7687,2.7665,2.7699,2.7699,2.7718,2.7717,2.7802,2.7728,2.7728,2.7728,2.7727,0,2.7276,2.7316,2.7337,2.7366,2.7412,2.7423,2.747,2.7487,2.7514,2.7549,2.7551,2.7584,2.7602,2.7639,2.7651,2.7704,2.7713,2.7724,2.7728,2.7725,2.7725,2.7742,2.7739,2.773,2.7729,2.7729,2.7729,0,2.7326,2.7342,2.7393,2.7426,2.7435,2.7468,2.7497,2.7527,2.7542,2.7586,2.7597,2.7622,2.7666,2.7684,2.7738,2.7747,2.7808,2.7807,2.7797,2.7799,2.7833,2.7831,2.7934,2.795,2.7863,2.7864,2.7864,0,2.7364,2.7395,2.7432,2.7454,2.7472,2.7509,2.7533,2.7546,2.7572,2.7612,2.7638,2.7681,2.7717,2.7787,2.7812,2.7854,2.7856,2.7889,2.7862,2.786,2.786,2.7859,2.7864,2.7895,2.7896,2.7896,2.7897,0,2.7432,2.7438,2.7472,2.751,2.7538,2.7569,2.7599,2.7618,2.7637,2.7666,2.771,2.7737,2.7793,2.7837,2.7881,2.7903,2.7905,2.7905,2.7916,2.7915,2.7909,2.7916,2.7814,2.7903,2.7902,2.7902,2.7902,2.7901,2.7479,2.7508,2.7539,2.7577,2.7601,2.763,2.766,2.768,2.7716,2.7761,2.7768,2.7816,2.7851,2.791,2.7933,2.7973,2.7965,2.798,2.7984,2.7988,2.7992,2.7901,2.7981,2.7981,2.7981,2.7981,2.7981,0,2.7549,2.7569,2.7604,2.7647,2.7678,2.7675,2.7709,2.7736,2.7778,2.7809,2.7845,2.7898,2.7941,2.797,2.8015,2.8042,2.8045,2.8054,2.8053,2.8059,2.7995,2.7983,2.8052,2.8052,2.8052,2.8052,2.8052,2.8052,2.7589,2.7639,2.765,2.7713,2.7733,2.778,2.78,2.7828,2.7853,2.7912,2.7948,2.7965,2.7997,2.8045,2.8087,2.8094,2.8112,2.8123,2.8131,2.807,2.8063,2.8056,2.8045,2.8126,2.8126,2.8192,2.8192,2.8193]},{"header":{"parameterUnit":"m.s-1","parameterCategory":1,"la1":30.2991,"la2":30.254,"lo1":-89.0895,"lo2":-89.0444,"dy":0.0017,"dx":0.0017,"nx":28,"ny":28,"refTime":"2024-05-14T09:00:00:Z","depth":0,"parameterNumber":3,"parameterNumberName":"V-component_of_WINDS"},"data":[0,0,0,0,0,0,0,0,0,0,0,0,0,0,0,0,0,0,0,0,0,0,0,0,0,0,0,0,0,0,0,0,0,0,0,0,0,0,0,0,0,0,0,0,0,0,0,0,0,0,0,0,0,0,0,0,0,0,0.9625,0.9629,0,0.9918,0.9922,0.9925,0.9929,0.9926,0.9922,0.9918,1.0222,1.0234,1.0245,0,0,0,0,0,0,0,0,0,0,0,0,0,0.9071,0.9081,0.9625,0.9629,0.9632,0.9918,0.9922,0.9926,0.993,0.9925,0.9921,0.9917,1.0219,1.0232,1.0246,0,0,0,0,0,0,0,0,0,0,0,0,0,0.9333,0.9084,0.9624,0.9669,0.9676,0.9917,0.9922,0.9927,0.9931,0.9925,0.992,0.9915,1.0214,1.0231,1.0248,1.0466,0,0,1.0301,1.0308,0,0,0,0,0,0,0,0,0.9318,0.9353,0.9659,0.9666,0.9674,0.9881,0.9838,1.0108,0.9932,0.9834,0.9918,0.9912,1.0114,1.0139,1.0206,1.048,1.0493,1.0302,1.0313,1.032,1.0325,0,0,0,0,0,0,0,0.93,0.934,0.9741,0.9663,0.9673,0.9675,0.9706,0.9889,1.0002,0.9842,0.9843,0.9878,1.0117,1.0189,1.0213,1.0497,1.0302,1.0317,1.0328,1.0335,1.0961,1.0967,0,0,0,0,0,0,0.9272,0.9325,0.9732,0.975,0.9479,0.9689,0.9724,0.9821,1.0,1.0021,0.9882,0.9877,1.0163,1.0193,1.0224,1.0489,1.032,1.0336,1.0346,1.0955,1.0963,1.0969,0,0,0,0,0,0,0.926,0.9308,0.972,0.9538,0.959,0.9704,0.9813,0.9829,0.9902,1.003,1.005,0.9935,1.0159,1.02,1.0405,1.05,1.0344,1.036,1.0948,1.0957,1.0966,1.1021,0,0,0,0,0,0,0.9244,0.9304,0.9388,0.954,0.96,0.9896,0.9819,0.9839,0.9931,0.9927,1.0085,1.0106,1.0158,1.0379,1.0422,1.0521,1.0373,1.094,1.0952,1.0963,1.1012,1.1031,1.1049,0,0,0,0,0,0.9224,0.9393,0.9392,0.9441,0.9707,0.9901,0.9936,0.9991,0.9939,1.0024,1.0105,1.0101,1.0482,1.04,1.0448,1.0554,1.0934,1.0949,1.0962,1.1003,1.1028,1.1048,0,0,0,0,0,0,0.9252,0.9414,0.9415,0.9638,0.9755,0.9901,1.0011,1.0016,1.0152,1.0143,1.0207,1.0242,1.0446,1.052,1.0426,1.0772,1.0702,1.0726,1.0716,1.074,1.0758,1.0737,1.0388,0,0,0,0,0,0.9284,0.9427,0.9561,0.9745,0.9804,0.9897,0.9984,1.0016,1.0141,1.0191,1.0288,1.041,1.0557,1.0653,1.0795,1.1022,1.1055,1.1118,1.1136,1.1151,1.1171,1.1294,1.1323,1.1016,1.1016,1.1015,0,0,0.9352,0.9458,0.9545,0.9753,0.9848,0.9995,0.9939,1.0098,1.0207,1.0216,1.0414,1.0489,1.063,1.0845,1.0945,1.0914,1.1263,1.1169,1.1179,1.1193,1.1312,1.1341,1.1366,1.1025,1.1024,1.1022,0,0,0.955,0.9645,0.9807,0.9903,1.0046,1.0106,1.0145,1.029,1.034,1.0539,1.0548,1.0679,1.0932,1.103,1.1114,1.1345,1.1345,1.139,1.1487,1.1605,1.163,1.1651,1.1732,1.1761,1.141,1.141,1.141,0,0.9617,0.9838,0.9891,1.0049,1.0139,1.0151,1.0315,1.0406,1.0589,1.0651,1.0613,1.0927,1.1023,1.1261,1.1316,1.1384,1.143,1.1373,1.1621,1.1644,1.1665,1.1743,1.1774,1.1414,1.1414,1.1413,1.1413,0,0.9912,1.0064,1.0178,1.0352,1.0456,1.0616,1.0693,1.0792,1.0814,1.0878,1.108,1.1194,1.1359,1.1417,1.1442,1.1658,1.1634,1.1608,1.1538,1.1698,1.1772,1.1803,1.142,1.1419,1.1418,1.1416,0,0,1.0139,1.0337,1.0378,1.0455,1.0613,1.0732,1.0892,1.1051,1.1133,1.1258,1.1394,1.1605,1.158,1.1675,1.171,1.1814,1.1988,1.1775,1.178,1.181,1.2231,1.2249,1.2283,1.1988,1.1994,1.1999,1.2219,0,1.0353,1.0637,1.0688,1.0935,1.1076,1.1087,1.1226,1.1338,1.1401,1.153,1.16,1.1748,1.1705,1.1762,1.1866,1.1945,1.2073,1.193,1.2115,1.2121,1.2079,1.2323,1.2344,1.2546,1.2248,1.2253,1.2257,0,1.0643,1.0772,1.1033,1.1168,1.1229,1.1353,1.1501,1.1624,1.175,1.1788,1.1892,1.1914,1.208,1.2001,1.223,1.2131,1.2209,1.2259,1.2268,1.2288,1.2199,1.2348,1.2612,1.2642,1.2304,1.23,1.2297,0,1.078,1.102,1.1206,1.1273,1.1436,1.1522,1.1594,1.1714,1.1805,1.1935,1.1994,1.2142,1.2223,1.2336,1.2397,1.2335,1.2621,1.2548,1.2657,1.2655,1.2718,1.2713,1.2997,1.2768,1.2768,1.2767,1.2767,0,1.1015,1.1174,1.127,1.1385,1.1562,1.1619,1.1793,1.1864,1.197,1.2098,1.2117,1.2237,1.231,1.244,1.2489,1.267,1.2707,1.2742,1.2753,1.2741,1.2736,1.2793,1.2781,1.2775,1.2774,1.2772,1.2771,0,1.1199,1.127,1.1474,1.161,1.1648,1.1773,1.1889,1.2001,1.2062,1.2224,1.2265,1.2362,1.2516,1.2587,1.2779,1.2811,1.3016,1.3018,1.2974,1.2978,1.3082,1.3071,1.3413,1.346,1.32,1.3203,1.3205,0,1.1344,1.1466,1.1614,1.17,1.1774,1.1914,1.2006,1.2065,1.216,1.231,1.2403,1.2557,1.2684,1.2929,1.3017,1.3162,1.3167,1.3277,1.319,1.3172,1.3168,1.316,1.3171,1.3293,1.3296,1.3298,1.3299,0,1.1594,1.1622,1.1753,1.1897,1.2005,1.2121,1.2235,1.2305,1.2382,1.2488,1.2644,1.2742,1.2935,1.3088,1.3238,1.3312,1.3319,1.3326,1.3358,1.3347,1.3315,1.3332,1.3016,1.3318,1.3316,1.3315,1.3314,1.3313,1.1763,1.1871,1.1991,1.2136,1.2227,1.2332,1.2442,1.2516,1.2647,1.2808,1.2835,1.3001,1.3121,1.3323,1.3402,1.3532,1.3507,1.3555,1.3567,1.3578,1.3583,1.3294,1.356,1.356,1.356,1.3559,1.3559,0,1.2012,1.2089,1.2221,1.2379,1.2492,1.2486,1.2611,1.2706,1.2852,1.2962,1.3085,1.3263,1.341,1.3508,1.3656,1.3742,1.3748,1.3779,1.3773,1.379,1.3598,1.3554,1.3771,1.3771,1.3771,1.3771,1.3771,1.3771,1.2155,1.2337,1.2378,1.2604,1.268,1.2842,1.2913,1.301,1.3098,1.3295,1.3417,1.3479,1.3584,1.3739,1.3873,1.3898,1.3951,1.3983,1.4006,1.3826,1.3804,1.3782,1.3742,1.3994,1.3994,1.4187,1.4189,1.419]}]]